Regional Weather Roundup
Issued by NWS

Home | Current Version | Previous Version | Text Only | Print | Product List | Glossary On
Versions: 1 2 3 4 5 6 7 8 9 10 11 12 13 14 15 16 17 18 19 20 21 22 23 24 25 26 27 28 29 30 31 32 33 34 35 36 37 38 39 40 41 42 43 44 45 46 47 48 49 50
000
ASUS43 KOAX 250410
RWRNE

WEATHER ROUNDUP FOR NEBRASKA
NATIONAL WEATHER SERVICE OMAHA NE
1100 PM CDT SAT SEP 24 2016

NOTES: SATELLITE DATA IS BEING USED TO AUGMENT CLOUD COVER ABOVE
       12000 FEET.
       "FAIR" INDICATES FEW OR NO CLOUDS BELOW 12,000 FEET WITH NO
       SIGNIFICANT WEATHER AND/OR OBSTRUCTIONS TO VISIBILITY.

  * THESE STATIONS DO NOT REPORT WEATHER SUCH AS RAIN...SNOW OR FOG.

NEZ001>004-019>022-054>056-250500-
NEBRASKA PANHANDLE

CITY           SKY/WX    TMP DP  RH WIND       PRES   REMARKS
SCOTTSBLUFF    CLEAR     48  41  76 NW7       30.21R
ALLIANCE       PTCLDY    50  41  71 NW16      30.16R
CHADRON        PTCLDY    53  41  63 W15       30.15R
KIMBALL        CLOUDY    49  40  72 NW9       30.23R
SIDNEY         PTCLDY    50  41  71 NW12      30.22R
$$

NEZ057>060-069>072-079>082-250500-
SOUTHWEST NEBRASKA

CITY           SKY/WX    TMP DP  RH WIND       PRES   REMARKS
NORTH PLATTE   CLEAR     58  44  60 NW12      30.10R
IMPERIAL       CLOUDY    58  40  51 NW14      30.15R
LEXINGTON      CLEAR     53  46  78 NW3       30.03R
MCCOOK         CLEAR     56  43  61 NW9       30.05R HAZE
OGALLALA       CLEAR     58  42  54 NW13G22   30.15R
$$

NEZ005>010-023>029-035>040-094-250500-
NORTH CENTRAL NEBRASKA

CITY           SKY/WX    TMP DP  RH WIND       PRES   REMARKS
VALENTINE      CLEAR     55  39  54 W22G30    30.03S
AINSWORTH      CLEAR     57  43  59 W15G22    30.05R
BROKEN BOW     CLEAR     60  43  53 NW15G25   30.04R
O`NEILL        CLOUDY    61  43  52 W12       30.00R
ORD            PTCLDY    54  47  77 CALM      29.99R
THEDFORD       CLEAR     56  42  58 NW13G21   30.10R
$$

NEZ041-046>049-061>064-073>077-083>087-250500-
SOUTH CENTRAL NEBRASKA

CITY           SKY/WX    TMP DP  RH WIND       PRES   REMARKS
GRAND ISLAND   PTCLDY    62  61  96 SW3       29.98R
AURORA         MOCLDY    66  66 100 SW5       29.98R
HASTINGS       PTCLDY    63  61  93 CALM      30.00R
HEBRON         CLOUDY    70  68  94 CALM      29.98R
HOLDREGE       CLEAR     55  49  81 W5        30.02R
KEARNEY *      CLEAR     63  46  55 W3        30.00R
YORK           CLOUDY    68  68 100 S5        29.98R
$$

NEZ011>018-030>034-042>045-250500-
NORTHEAST NEBRASKA

CITY           SKY/WX    TMP DP  RH WIND       PRES   REMARKS
NORFOLK        CLOUDY    68  64  87 SW3       29.96R
ALBION         MOCLDY    63  60  91 CALM      29.98R
BLAIR          HVY RAIN  69  68  95 S3        29.97R
FREMONT        CLOUDY    69  68  94 S3        29.96S
TEKAMAH        CLOUDY    70  68  93 SE7       29.96R
WAYNE          CLOUDY    69  69  97 S3        29.96R
$$

NEZ050>053-065>068-078-088>093-250500-
SOUTHEAST NEBRASKA

CITY           SKY/WX    TMP DP  RH WIND       PRES   REMARKS
LINCOLN        CLOUDY    69  68  96 S7        29.97S
OMAHA EPPLEY   CLOUDY    71  67  87 S8        29.98R
BEATRICE       CLOUDY    69  68  97 S12       29.98R
FALLS CITY     HVY RAIN  70  70 100 S12       29.98F FOG
NEBRASKA CITY  TSTM      68  65  91 S12       29.99R
PLATTSMOUTH    LGT RAIN  68  65  90 SE6       29.99R
$$

NEZ044-045-051>053-067-250500-
OMAHA AREA

CITY           SKY/WX    TMP DP  RH WIND       PRES   REMARKS
OMAHA EPPLEY   CLOUDY    71  67  87 S8        29.98R
BLAIR          HVY RAIN  69  68  95 S3        29.97R
FREMONT        CLOUDY    69  68  94 S3        29.96S
MILLARD        LGT RAIN  71  68  92 CALM      29.96S
OFFUTT AFB     LGT RAIN  68  68 100 SE8       29.97R
PLATTSMOUTH    LGT RAIN  68  65  90 SE6       29.99R
WAHOO          CLOUDY    68  67  94 SE5       29.96S
$$



USA.gov is the U.S. government's official web portal to all federal, state and local government web resources and services.